Data No.,UTC Date,UTC Time,Latitude,Longitude,Course(deg),Temp(degC),Sal(psu)
21,2014/3/21,4:28:00,34-03.9100N,137-08.3900E,167,16.307,34.6722
22,2014/3/21,4:29:00,34-03.7000N,137-08.4400E,167,16.339,34.6716
23,2014/3/21,4:30:00,34-03.4900N,137-08.5000E,167,16.368,34.6732
24,2014/3/21,4:31:00,34-03.2800N,137-08.5500E,167,16.375,34.6743
25,2014/3/21,4:32:00,34-03.0700N,137-08.6100E,166,16.383,34.6766
26,2014/3/21,4:33:00,34-02.8600N,137-08.6700E,167,16.423,34.6783
27,2014/3/21,4:34:00,34-02.6400N,137-08.7200E,167,16.448,34.6807
28,2014/3/21,4:35:00,34-02.4300N,137-08.7800E,168,16.466,34.6829
29,2014/3/21,4:36:00,34-02.2200N,137-08.8300E,168,16.472,34.6826
30,2014/3/21,4:37:00,34-02.0100N,137-08.8800E,167,16.489,34.6842
31,2014/3/21,4:38:00,34-01.8000N,137-08.9400E,167,16.504,34.6836
32,2014/3/21,4:39:00,34-01.5900N,137-08.9900E,167,16.517,34.6834
33,2014/3/21,4:40:00,34-01.3800N,137-09.0500E,167,16.53,34.6858
34,2014/3/21,4:41:00,34-01.1700N,137-09.1000E,167,16.54,34.6884
35,2014/3/21,4:42:00,34-00.9500N,137-09.1600E,168,16.551,34.687
36,2014/3/21,4:43:00,34-00.7400N,137-09.2100E,167,16.551,34.6884
37,2014/3/21,4:44:00,34-00.5200N,137-09.2700E,167,16.552,34.689
38,2014/3/21,4:45:00,34-00.3100N,137-09.3300E,167,16.549,34.689
39,2014/3/21,4:46:00,34-00.1000N,137-09.3800E,167,16.543,34.6893
40,2014/3/21,4:47:00,33-59.8600N,137-09.4400E,167,16.525,34.6894
41,2014/3/21,4:48:00,33-59.6500N,137-09.4900E,167,16.516,34.6884
42,2014/3/21,4:49:00,33-59.4400N,137-09.5600E,166,16.5,34.6887
43,2014/3/21,4:50:00,33-59.2200N,137-09.6100E,167,16.488,34.6878
44,2014/3/21,4:51:00,33-59.0000N,137-09.6700E,167,16.482,34.6866
45,2014/3/21,4:52:00,33-58.8000N,137-09.7200E,167,16.453,34.6872
46,2014/3/21,4:53:00,33-58.5800N,137-09.7700E,168,16.445,34.6852
47,2014/3/21,4:54:00,33-58.3700N,137-09.8300E,166,16.442,34.6837
48,2014/3/21,4:55:00,33-58.1600N,137-09.8900E,167,16.455,34.683
49,2014/3/21,4:56:00,33-57.9500N,137-09.9500E,167,16.463,34.6827
50,2014/3/21,4:57:00,33-57.7300N,137-10.0000E,168,16.463,34.683
51,2014/3/21,4:58:00,33-57.5200N,137-10.0500E,168,16.467,34.684
52,2014/3/21,4:59:00,33-57.3100N,137-10.1100E,166,16.466,34.6853
53,2014/3/21,5:00:00,33-57.1000N,137-10.1700E,167,16.46,34.6853
54,2014/3/21,5:01:00,33-56.8900N,137-10.2200E,166,16.45,34.6857
55,2014/3/21,5:02:00,33-56.6800N,137-10.2800E,167,16.44,34.6851
56,2014/3/21,5:03:00,33-56.4700N,137-10.3400E,167,16.432,34.6851
57,2014/3/21,5:04:00,33-56.2600N,137-10.4000E,167,16.428,34.6844
58,2014/3/21,5:05:00,33-56.0500N,137-10.4500E,166,16.427,34.6827
59,2014/3/21,5:06:00,33-55.8400N,137-10.5100E,167,16.428,34.6828
60,2014/3/21,5:07:00,33-55.6300N,137-10.5700E,167,16.43,34.6818
61,2014/3/21,5:08:00,33-55.4200N,137-10.6300E,166,16.432,34.6828
62,2014/3/21,5:09:00,33-55.2000N,137-10.6800E,167,16.435,34.6828
63,2014/3/21,5:10:00,33-54.9900N,137-10.7400E,167,16.436,34.6829
64,2014/3/21,5:11:00,33-54.7800N,137-10.7900E,168,16.442,34.6823
65,2014/3/21,5:12:00,33-54.5700N,137-10.8400E,169,16.451,34.6837
66,2014/3/21,5:13:00,33-54.3500N,137-10.8800E,170,16.462,34.684
67,2014/3/21,5:14:00,33-54.1400N,137-10.9300E,169,16.473,34.6843
68,2014/3/21,5:15:00,33-53.9100N,137-10.9700E,170,16.485,34.6858
69,2014/3/21,5:16:00,33-53.7000N,137-11.0100E,170,16.493,34.6851
70,2014/3/21,5:17:00,33-53.4900N,137-11.0600E,170,16.505,34.6857
71,2014/3/21,5:18:00,33-53.2700N,137-11.1000E,170,16.511,34.6871
72,2014/3/21,5:19:00,33-53.0600N,137-11.1500E,171,16.519,34.6879
73,2014/3/21,5:20:00,33-52.8400N,137-11.1900E,170,16.527,34.6883
74,2014/3/21,5:21:00,33-52.6300N,137-11.2300E,170,16.53,34.6884
75,2014/3/21,5:22:00,33-52.4200N,137-11.2800E,169,16.531,34.6882
76,2014/3/21,5:23:00,33-52.2100N,137-11.3300E,167,16.532,34.6884
77,2014/3/21,5:24:00,33-52.0000N,137-11.3800E,169,16.532,34.6893
78,2014/3/21,5:25:00,33-51.7900N,137-11.4200E,169,16.527,34.69
79,2014/3/21,5:26:00,33-51.5700N,137-11.4700E,169,16.528,34.69
80,2014/3/21,5:27:00,33-51.3600N,137-11.5200E,169,16.523,34.6901
81,2014/3/21,5:28:00,33-51.1500N,137-11.5600E,170,16.521,34.6894
82,2014/3/21,5:29:00,33-50.9400N,137-11.6100E,169,16.518,34.6892
83,2014/3/21,5:30:00,33-50.7300N,137-11.6600E,169,16.513,34.6889
84,2014/3/21,5:31:00,33-50.5100N,137-11.7100E,169,16.507,34.6874
85,2014/3/21,5:32:00,33-50.3100N,137-11.7500E,169,16.51,34.6866
86,2014/3/21,5:33:00,33-50.0900N,137-11.8000E,169,16.514,34.6867
87,2014/3/21,5:34:00,33-49.8800N,137-11.8500E,169,16.514,34.6882
88,2014/3/21,5:35:00,33-49.6600N,137-11.9000E,169,16.514,34.6886
89,2014/3/21,5:36:00,33-49.4500N,137-11.9400E,169,16.512,34.689
90,2014/3/21,5:37:00,33-49.2400N,137-11.9900E,169,16.514,34.6889
91,2014/3/21,5:38:00,33-49.0300N,137-12.0400E,168,16.519,34.6883
92,2014/3/21,5:39:00,33-48.8100N,137-12.0900E,169,16.522,34.6893
93,2014/3/21,5:40:00,33-48.6000N,137-12.1400E,168,16.528,34.6883
94,2014/3/21,5:41:00,33-48.3900N,137-12.1900E,169,16.533,34.6883
95,2014/3/21,5:42:00,33-48.1800N,137-12.2400E,168,16.533,34.6882
96,2014/3/21,5:43:00,33-47.9500N,137-12.2900E,169,16.533,34.6876
97,2014/3/21,5:44:00,33-47.7400N,137-12.3400E,168,16.535,34.6884
98,2014/3/21,5:45:00,33-47.5300N,137-12.3900E,168,16.531,34.6877
99,2014/3/21,5:46:00,33-47.3200N,137-12.4400E,169,16.53,34.6882
100,2014/3/21,5:47:00,33-47.1100N,137-12.4900E,169,16.532,34.6875
101,2014/3/21,5:48:00,33-46.9000N,137-12.5300E,170,16.53,34.6873
102,2014/3/21,5:49:00,33-46.6900N,137-12.5800E,169,16.532,34.688
103,2014/3/21,5:50:00,33-46.4800N,137-12.6300E,169,16.538,34.6885
104,2014/3/21,5:51:00,33-46.2700N,137-12.6700E,170,16.555,34.6878
105,2014/3/21,5:52:00,33-46.0500N,137-12.7100E,170,16.571,34.6879
106,2014/3/21,5:53:00,33-45.8400N,137-12.7500E,170,16.582,34.688
107,2014/3/21,5:54:00,33-45.6300N,137-12.8000E,169,16.591,34.6885
108,2014/3/21,5:55:00,33-45.4100N,137-12.8500E,170,16.608,34.6882
109,2014/3/21,5:56:00,33-45.2000N,137-12.8900E,170,16.633,34.6885
110,2014/3/21,5:57:00,33-44.9800N,137-12.9400E,168,16.659,34.6874
111,2014/3/21,5:58:00,33-44.7700N,137-12.9900E,169,16.673,34.6869
112,2014/3/21,5:59:00,33-44.5600N,137-13.0400E,169,16.679,34.6877
113,2014/3/21,6:00:00,33-44.3400N,137-13.0800E,171,16.69,34.6893
114,2014/3/21,6:01:00,33-44.1300N,137-13.1200E,170,16.692,34.6877
115,2014/3/21,6:02:00,33-43.9200N,137-13.1700E,170,16.669,34.6872
116,2014/3/21,6:03:00,33-43.7000N,137-13.2000E,171,16.637,34.6848
117,2014/3/21,6:04:00,33-43.4800N,137-13.2400E,170,16.621,34.6801
118,2014/3/21,6:05:00,33-43.2700N,137-13.2800E,171,16.607,34.6751
119,2014/3/21,6:06:00,33-43.0600N,137-13.3200E,171,16.599,34.6741
120,2014/3/21,6:07:00,33-42.8500N,137-13.3600E,169,16.599,34.6732
121,2014/3/21,6:08:00,33-42.6400N,137-13.4000E,172,16.614,34.6741
122,2014/3/21,6:09:00,33-42.4200N,137-13.4300E,171,16.621,34.6759
123,2014/3/21,6:10:00,33-42.2100N,137-13.4800E,169,16.598,34.6786
124,2014/3/21,6:11:00,33-41.9800N,137-13.5200E,171,16.546,34.68
125,2014/3/21,6:12:00,33-41.7700N,137-13.5600E,171,16.497,34.6788
126,2014/3/21,6:13:00,33-41.5700N,137-13.6000E,170,16.43,34.6746
127,2014/3/21,6:14:00,33-41.3500N,137-13.6400E,171,16.386,34.6693
128,2014/3/21,6:15:00,33-41.1400N,137-13.6700E,172,16.306,34.6658
129,2014/3/21,6:16:00,33-40.9300N,137-13.7100E,171,16.208,34.6606
130,2014/3/21,6:17:00,33-40.7200N,137-13.7500E,171,16.164,34.652
131,2014/3/21,6:18:00,33-40.5000N,137-13.7900E,170,16.061,34.6474
132,2014/3/21,6:19:00,33-40.2900N,137-13.8300E,171,15.898,34.6419
133,2014/3/21,6:20:00,33-40.0800N,137-13.8700E,170,15.753,34.6312
134,2014/3/21,6:21:00,33-39.8700N,137-13.9200E,170,15.592,34.6196
135,2014/3/21,6:22:00,33-39.6700N,137-13.9600E,171,15.442,34.6063
136,2014/3/21,6:23:00,33-39.4600N,137-14.0000E,169,15.274,34.5919
137,2014/3/21,6:24:00,33-39.2500N,137-14.0400E,169,15.101,34.576
138,2014/3/21,6:25:00,33-39.0400N,137-14.0900E,169,15.08,34.5529
139,2014/3/21,6:26:00,33-38.8300N,137-14.1400E,169,15.125,34.5434
140,2014/3/21,6:27:00,33-38.6200N,137-14.1900E,167,15.235,34.5472
141,2014/3/21,6:28:00,33-38.4200N,137-14.2400E,167,15.322,34.5601
142,2014/3/21,6:29:00,33-38.2200N,137-14.3000E,167,15.435,34.574
143,2014/3/21,6:30:00,33-38.0100N,137-14.3500E,168,15.489,34.59
144,2014/3/21,6:31:00,33-37.8000N,137-14.4100E,166,15.518,34.598
145,2014/3/21,6:32:00,33-37.5900N,137-14.4600E,167,15.548,34.5949
146,2014/3/21,6:33:00,33-37.3900N,137-14.5100E,167,15.557,34.5955
147,2014/3/21,6:34:00,33-37.1800N,137-14.5700E,166,15.558,34.5932
148,2014/3/21,6:35:00,33-36.9800N,137-14.6300E,165,15.563,34.5926
149,2014/3/21,6:36:00,33-36.7700N,137-14.7000E,166,15.56,34.5917
150,2014/3/21,6:37:00,33-36.5700N,137-14.7600E,164,15.568,34.5974
151,2014/3/21,6:38:00,33-36.3500N,137-14.8300E,165,15.571,34.6042
152,2014/3/21,6:39:00,33-36.1400N,137-14.8900E,165,15.572,34.6073
153,2014/3/21,6:40:00,33-35.9400N,137-14.9500E,166,15.576,34.6098
154,2014/3/21,6:41:00,33-35.7300N,137-15.0000E,169,15.577,34.6119
155,2014/3/21,6:42:00,33-35.5300N,137-15.0500E,168,15.57,34.613
156,2014/3/21,6:43:00,33-35.3300N,137-15.0900E,167,15.532,34.6146
157,2014/3/21,6:44:00,33-35.1200N,137-15.1500E,167,15.487,34.6126
158,2014/3/21,6:45:00,33-34.9200N,137-15.2000E,167,15.468,34.6103
159,2014/3/21,6:46:00,33-34.7100N,137-15.2500E,168,15.511,34.6073
160,2014/3/21,6:47:00,33-34.5000N,137-15.3000E,168,15.538,34.6084
161,2014/3/21,6:48:00,33-34.3000N,137-15.3600E,167,15.562,34.6105
162,2014/3/21,6:49:00,33-34.0900N,137-15.4200E,166,15.564,34.6117
163,2014/3/21,6:50:00,33-33.8900N,137-15.4700E,167,15.573,34.6094
164,2014/3/21,6:51:00,33-33.6800N,137-15.5300E,167,15.607,34.598
165,2014/3/21,6:52:00,33-33.4800N,137-15.5800E,169,15.641,34.5881
166,2014/3/21,6:53:00,33-33.2700N,137-15.6200E,168,15.706,34.5853
167,2014/3/21,6:54:00,33-33.0700N,137-15.6700E,169,15.843,34.5824
168,2014/3/21,6:55:00,33-32.8700N,137-15.7100E,171,16.022,34.5882
169,2014/3/21,6:56:00,33-32.6700N,137-15.7600E,169,16.172,34.6029
170,2014/3/21,6:57:00,33-32.4600N,137-15.8000E,170,16.282,34.6271
171,2014/3/21,6:58:00,33-32.2600N,137-15.8400E,170,16.394,34.6428
172,2014/3/21,6:59:00,33-32.0500N,137-15.8800E,170,16.505,34.6588
173,2014/3/21,7:00:00,33-31.8500N,137-15.9100E,171,16.619,34.6731
174,2014/3/21,7:01:00,33-31.6400N,137-15.9500E,171,16.704,34.6831
175,2014/3/21,7:02:00,33-31.4300N,137-15.9900E,171,16.758,34.6913
176,2014/3/21,7:03:00,33-31.2300N,137-16.0300E,169,16.804,34.6975
177,2014/3/21,7:04:00,33-31.0200N,137-16.0600E,175,16.834,34.7013
178,2014/3/21,7:05:00,33-30.8200N,137-16.0700E,180,16.853,34.7039
179,2014/3/21,7:06:00,33-30.6300N,137-16.0600E,181,16.857,34.7045
180,2014/3/21,7:07:00,33-30.4100N,137-16.0500E,182,16.856,34.7072
181,2014/3/21,7:08:00,33-30.2100N,137-16.0400E,182,16.844,34.7082
182,2014/3/21,7:09:00,33-30.0100N,137-16.0400E,181,16.826,34.7097
183,2014/3/21,7:10:00,33-29.8100N,137-16.0300E,182,16.804,34.7086
184,2014/3/21,7:11:00,33-29.6000N,137-16.0200E,181,16.779,34.7073
185,2014/3/21,7:12:00,33-29.4000N,137-16.0100E,181,16.77,34.7051
186,2014/3/21,7:13:00,33-29.1900N,137-16.0100E,179,16.775,34.7039
187,2014/3/21,7:14:00,33-28.9900N,137-16.0000E,182,16.779,34.7028
188,2014/3/21,7:15:00,33-28.7900N,137-15.9900E,182,16.782,34.701
189,2014/3/21,7:16:00,33-28.5900N,137-15.9900E,182,16.79,34.7011
190,2014/3/21,7:17:00,33-28.3800N,137-15.9800E,181,16.797,34.7004
191,2014/3/21,7:18:00,33-28.1700N,137-15.9700E,181,16.803,34.7003
192,2014/3/21,7:19:00,33-27.9700N,137-15.9600E,180,16.806,34.7008
193,2014/3/21,7:20:00,33-27.7700N,137-15.9500E,185,16.809,34.7019
194,2014/3/21,7:21:00,33-27.5600N,137-15.9200E,186,16.809,34.702
195,2014/3/21,7:22:00,33-27.3700N,137-15.8900E,187,16.805,34.7029
196,2014/3/21,7:23:00,33-27.1600N,137-15.8500E,188,16.8,34.7026
197,2014/3/21,7:24:00,33-26.9600N,137-15.8200E,188,16.791,34.703
198,2014/3/21,7:25:00,33-26.7600N,137-15.7800E,187,16.78,34.7014
199,2014/3/21,7:26:00,33-26.5500N,137-15.7500E,188,16.773,34.7001
200,2014/3/21,7:27:00,33-26.3400N,137-15.7100E,187,16.762,34.6981
201,2014/3/21,7:28:00,33-26.1400N,137-15.6800E,187,16.756,34.6967
202,2014/3/21,7:29:00,33-25.9400N,137-15.6400E,188,16.752,34.6952
203,2014/3/21,7:30:00,33-25.7300N,137-15.6100E,187,16.745,34.6943
204,2014/3/21,7:31:00,33-25.5200N,137-15.5700E,188,16.739,34.6945
205,2014/3/21,7:32:00,33-25.3200N,137-15.5300E,188,16.731,34.6944
206,2014/3/21,7:33:00,33-25.1200N,137-15.5000E,188,16.72,34.6932
207,2014/3/21,7:34:00,33-24.9100N,137-15.4600E,188,16.708,34.6939
208,2014/3/21,7:35:00,33-24.6900N,137-15.4200E,187,16.691,34.692
209,2014/3/21,7:36:00,33-24.4800N,137-15.3800E,188,16.673,34.6917
210,2014/3/21,7:37:00,33-24.2800N,137-15.3400E,188,16.685,34.691
211,2014/3/21,7:38:00,33-24.0700N,137-15.3100E,187,16.708,34.689
212,2014/3/21,7:39:00,33-23.8600N,137-15.2800E,186,16.737,34.6882
213,2014/3/21,7:40:00,33-23.6600N,137-15.2600E,185,16.759,34.6879
214,2014/3/21,7:41:00,33-23.4600N,137-15.2300E,185,16.773,34.6874
215,2014/3/21,7:42:00,33-23.2500N,137-15.2300E,178,16.791,34.6888
216,2014/3/21,7:43:00,33-23.0400N,137-15.2400E,175,16.805,34.6887
217,2014/3/21,7:44:00,33-22.8300N,137-15.2800E,167,16.819,34.6885
218,2014/3/21,7:45:00,33-22.6300N,137-15.3300E,168,16.838,34.6876
219,2014/3/21,7:46:00,33-22.4200N,137-15.3900E,166,16.855,34.689
220,2014/3/21,7:47:00,33-22.2200N,137-15.4500E,166,16.864,34.6913
221,2014/3/21,7:48:00,33-22.0100N,137-15.5100E,166,16.871,34.6925
222,2014/3/21,7:49:00,33-21.8100N,137-15.5700E,165,16.883,34.693
223,2014/3/21,7:50:00,33-21.6000N,137-15.6300E,166,16.887,34.6933
224,2014/3/21,7:51:00,33-21.3900N,137-15.7000E,165,16.899,34.6946
225,2014/3/21,7:52:00,33-21.1900N,137-15.7600E,165,16.906,34.694
226,2014/3/21,7:53:00,33-20.9800N,137-15.8200E,164,16.913,34.696
227,2014/3/21,7:54:00,33-20.7800N,137-15.8900E,164,16.92,34.6969
228,2014/3/21,7:55:00,33-20.5700N,137-15.9500E,165,16.927,34.6986
229,2014/3/21,7:56:00,33-20.3700N,137-16.0200E,165,16.931,34.6982
230,2014/3/21,7:57:00,33-20.1600N,137-16.0800E,166,16.931,34.6991
231,2014/3/21,7:58:00,33-19.9500N,137-16.1400E,166,16.934,34.6998
232,2014/3/21,7:59:00,33-19.7400N,137-16.2100E,163,16.934,34.7013
233,2014/3/21,8:00:00,33-19.5300N,137-16.2800E,164,16.934,34.7004
234,2014/3/21,8:01:00,33-19.3200N,137-16.3500E,164,16.931,34.702
235,2014/3/21,8:02:00,33-19.1100N,137-16.4200E,164,16.933,34.7019
236,2014/3/21,8:03:00,33-18.8800N,137-16.5000E,165,16.93,34.7016
237,2014/3/21,8:04:00,33-18.6700N,137-16.5600E,165,16.917,34.703
238,2014/3/21,8:05:00,33-18.4600N,137-16.6300E,164,16.905,34.7019
239,2014/3/21,8:06:00,33-18.2400N,137-16.7000E,164,16.897,34.7007
240,2014/3/21,8:07:00,33-18.0300N,137-16.7600E,165,16.895,34.7001
241,2014/3/21,8:08:00,33-17.8100N,137-16.8300E,165,16.889,34.7004
242,2014/3/21,8:09:00,33-17.6000N,137-16.9000E,164,16.876,34.7004
243,2014/3/21,8:10:00,33-17.3800N,137-16.9700E,164,16.864,34.6991
244,2014/3/21,8:11:00,33-17.1700N,137-17.0400E,165,16.858,34.6984
245,2014/3/21,8:12:00,33-16.9500N,137-17.1000E,165,16.853,34.6979
246,2014/3/21,8:13:00,33-16.7300N,137-17.1700E,164,16.849,34.6974
247,2014/3/21,8:14:00,33-16.5100N,137-17.2400E,164,16.843,34.6973
248,2014/3/21,8:15:00,33-16.3000N,137-17.3100E,163,16.831,34.6976
249,2014/3/21,8:16:00,33-16.0900N,137-17.3800E,164,16.824,34.6968
250,2014/3/21,8:17:00,33-15.8700N,137-17.4500E,164,16.815,34.6956
251,2014/3/21,8:18:00,33-15.6600N,137-17.5200E,164,16.811,34.6953
252,2014/3/21,8:19:00,33-15.4400N,137-17.5900E,165,16.801,34.6952
253,2014/3/21,8:20:00,33-15.2200N,137-17.6600E,165,16.793,34.6945
254,2014/3/21,8:21:00,33-15.0100N,137-17.7200E,165,16.784,34.6938
255,2014/3/21,8:22:00,33-14.7900N,137-17.7900E,164,16.776,34.6938
256,2014/3/21,8:23:00,33-14.5700N,137-17.8600E,164,16.776,34.6931
257,2014/3/21,8:24:00,33-14.3500N,137-17.9300E,164,16.775,34.6924
258,2014/3/21,8:25:00,33-14.1400N,137-18.0000E,165,16.779,34.6927
259,2014/3/21,8:26:00,33-13.9200N,137-18.0700E,165,16.777,34.6926
260,2014/3/21,8:27:00,33-13.7000N,137-18.1400E,165,16.774,34.6931
261,2014/3/21,8:28:00,33-13.4800N,137-18.2100E,164,16.768,34.6927
262,2014/3/21,8:29:00,33-13.2600N,137-18.2800E,165,16.765,34.6926
263,2014/3/21,8:30:00,33-13.0500N,137-18.3400E,166,16.77,34.6914
264,2014/3/21,8:31:00,33-12.8100N,137-18.4100E,166,16.781,34.6914
265,2014/3/21,8:32:00,33-12.5900N,137-18.4800E,165,16.791,34.691
266,2014/3/21,8:33:00,33-12.3700N,137-18.5400E,165,16.791,34.6901
267,2014/3/21,8:34:00,33-12.1500N,137-18.6100E,166,16.786,34.6906
268,2014/3/21,8:35:00,33-11.9300N,137-18.6800E,165,16.803,34.6906
269,2014/3/21,8:36:00,33-11.7100N,137-18.7400E,166,16.823,34.6897
270,2014/3/21,8:37:00,33-11.4900N,137-18.8000E,167,16.83,34.6891
271,2014/3/21,8:38:00,33-11.2600N,137-18.8700E,166,16.839,34.6883
272,2014/3/21,8:39:00,33-11.0500N,137-18.9300E,166,16.861,34.6884
273,2014/3/21,8:40:00,33-10.8300N,137-19.0000E,165,16.878,34.6889
274,2014/3/21,8:41:00,33-10.6000N,137-19.0700E,165,16.899,34.6891
275,2014/3/21,8:42:00,33-10.3800N,137-19.1300E,166,16.919,34.6866
276,2014/3/21,8:43:00,33-10.1600N,137-19.2000E,165,16.932,34.6879
277,2014/3/21,8:44:00,33-09.9400N,137-19.2700E,165,16.966,34.6874
278,2014/3/21,8:45:00,33-09.7200N,137-19.3300E,166,16.998,34.6896
279,2014/3/21,8:46:00,33-09.4900N,137-19.4000E,166,17.017,34.6877
280,2014/3/21,8:47:00,33-09.2600N,137-19.4700E,165,17.041,34.6871
281,2014/3/21,8:48:00,33-09.0400N,137-19.5300E,165,17.052,34.6857
282,2014/3/21,8:49:00,33-08.8100N,137-19.6000E,165,17.059,34.6856
283,2014/3/21,8:50:00,33-08.5900N,137-19.6700E,165,17.07,34.6855
284,2014/3/21,8:51:00,33-08.3600N,137-19.7500E,165,17.079,34.6854
285,2014/3/21,8:52:00,33-08.1300N,137-19.8200E,164,17.091,34.6857
286,2014/3/21,8:53:00,33-07.9100N,137-19.9000E,162,17.088,34.6864
287,2014/3/21,8:54:00,33-07.6900N,137-19.9800E,161,17.094,34.6863
288,2014/3/21,8:55:00,33-07.4600N,137-20.0600E,163,17.101,34.6857
289,2014/3/21,8:56:00,33-07.2300N,137-20.1400E,164,17.11,34.6853
290,2014/3/21,8:57:00,33-07.0100N,137-20.2200E,163,17.107,34.6863
291,2014/3/21,8:58:00,33-06.7800N,137-20.3100E,162,17.113,34.6865
292,2014/3/21,8:59:00,33-06.5300N,137-20.4000E,162,17.115,34.6884
293,2014/3/21,9:00:00,33-06.3100N,137-20.4900E,162,17.131,34.6905
294,2014/3/21,9:01:00,33-06.0800N,137-20.5700E,161,17.144,34.6913
295,2014/3/21,9:02:00,33-05.8600N,137-20.6600E,162,17.16,34.6927
296,2014/3/21,9:03:00,33-05.6300N,137-20.7500E,161,17.161,34.6927
297,2014/3/21,9:04:00,33-05.4100N,137-20.8400E,160,17.156,34.6942
298,2014/3/21,9:05:00,33-05.1800N,137-20.9300E,161,17.155,34.6946
299,2014/3/21,9:06:00,33-04.9500N,137-21.0300E,161,17.153,34.6933
300,2014/3/21,9:07:00,33-04.7300N,137-21.1200E,159,17.142,34.6927
301,2014/3/21,9:08:00,33-04.5100N,137-21.2200E,160,17.114,34.6931
302,2014/3/21,9:09:00,33-04.2800N,137-21.3200E,160,17.094,34.694
303,2014/3/21,9:10:00,33-04.0600N,137-21.4200E,159,17.08,34.694
304,2014/3/21,9:11:00,33-03.8300N,137-21.5200E,159,17.062,34.6931
305,2014/3/21,9:12:00,33-03.6100N,137-21.6200E,159,17.059,34.6921
306,2014/3/21,9:13:00,33-03.3900N,137-21.7200E,157,17.057,34.6914
307,2014/3/21,9:14:00,33-03.1700N,137-21.8100E,163,17.05,34.6911
308,2014/3/21,9:15:00,33-02.9400N,137-21.8800E,165,17.032,34.6904
309,2014/3/21,9:16:00,33-02.7300N,137-21.9500E,163,17.232,34.6914
310,2014/3/21,9:17:00,33-02.5000N,137-22.0300E,164,17.616,34.6942
311,2014/3/21,9:18:00,33-02.2700N,137-22.1100E,163,17.754,34.7006
312,2014/3/21,9:19:00,33-02.0500N,137-22.1700E,167,17.861,34.7024
313,2014/3/21,9:20:00,33-01.8200N,137-22.2300E,168,17.967,34.7057
314,2014/3/21,9:21:00,33-01.5900N,137-22.2900E,168,18.113,34.7122
315,2014/3/21,9:22:00,33-01.3600N,137-22.3500E,167,18.269,34.7217
316,2014/3/21,9:23:00,33-01.1300N,137-22.4100E,166,18.493,34.7316
317,2014/3/21,9:24:00,33-00.8900N,137-22.4600E,170,18.644,34.7418
318,2014/3/21,9:25:00,33-00.6700N,137-22.5000E,171,18.763,34.752
319,2014/3/21,9:26:00,33-00.4300N,137-22.5400E,171,18.878,34.7572
320,2014/3/21,9:27:00,33-00.1900N,137-22.5800E,171,18.979,34.7619
321,2014/3/21,9:28:00,32-59.9500N,137-22.6200E,171,19.057,34.7653
322,2014/3/21,9:29:00,32-59.7200N,137-22.6700E,171,19.137,34.7675
323,2014/3/21,9:30:00,32-59.4800N,137-22.7100E,170,19.221,34.7697
324,2014/3/21,9:31:00,32-59.2500N,137-22.7600E,170,19.361,34.7697
325,2014/3/21,9:32:00,32-59.0200N,137-22.8000E,170,19.479,34.773
326,2014/3/21,9:33:00,32-58.7900N,137-22.8400E,172,19.557,34.7756
327,2014/3/21,9:34:00,32-58.5600N,137-22.8800E,171,19.633,34.7773
328,2014/3/21,9:35:00,32-58.3300N,137-22.9200E,172,19.711,34.7784
329,2014/3/21,9:36:00,32-58.0900N,137-22.9600E,171,19.782,34.7799
330,2014/3/21,9:37:00,32-57.8700N,137-23.0000E,171,19.83,34.7826
331,2014/3/21,9:38:00,32-57.6300N,137-23.0400E,172,19.862,34.784
332,2014/3/21,9:39:00,32-57.4000N,137-23.0800E,172,19.891,34.7849
333,2014/3/21,9:40:00,32-57.1600N,137-23.1100E,172,19.913,34.7843
334,2014/3/21,9:41:00,32-56.9300N,137-23.1500E,172,19.92,34.7843
335,2014/3/21,9:42:00,32-56.7000N,137-23.1900E,171,19.922,34.7846
336,2014/3/21,9:43:00,32-56.4700N,137-23.2200E,173,19.925,34.7839
337,2014/3/21,9:44:00,32-56.2300N,137-23.2500E,172,19.925,34.7836
338,2014/3/21,9:45:00,32-56.0000N,137-23.2900E,173,19.93,34.7835
339,2014/3/21,9:46:00,32-55.7700N,137-23.3200E,172,19.929,34.7839
340,2014/3/21,9:47:00,32-55.5400N,137-23.3500E,173,19.924,34.7829
341,2014/3/21,9:48:00,32-55.3100N,137-23.3800E,173,19.931,34.7827
342,2014/3/21,9:49:00,32-55.0800N,137-23.4200E,172,19.936,34.7831
343,2014/3/21,9:50:00,32-54.8500N,137-23.4500E,173,19.943,34.7824
344,2014/3/21,9:51:00,32-54.6200N,137-23.4800E,172,19.944,34.7819
345,2014/3/21,9:52:00,32-54.3900N,137-23.5100E,173,19.945,34.7808
346,2014/3/21,9:53:00,32-54.1600N,137-23.5500E,173,19.948,34.7808
347,2014/3/21,9:54:00,32-53.9300N,137-23.5800E,173,19.951,34.7808
348,2014/3/21,9:55:00,32-53.6800N,137-23.6100E,173,19.958,34.781
349,2014/3/21,9:56:00,32-53.4600N,137-23.6500E,172,19.966,34.7816
350,2014/3/21,9:57:00,32-53.2300N,137-23.6800E,173,19.975,34.7828
351,2014/3/21,9:58:00,32-53.0000N,137-23.7100E,172,19.977,34.7837
352,2014/3/21,9:59:00,32-52.7700N,137-23.7400E,173,19.985,34.7847
353,2014/3/21,10:00:00,32-52.5400N,137-23.7800E,173,19.983,34.7844
354,2014/3/21,10:01:00,32-52.3200N,137-23.8000E,174,19.985,34.7835
355,2014/3/21,10:02:00,32-52.0900N,137-23.8300E,173,19.988,34.7831
356,2014/3/21,10:03:00,32-51.8600N,137-23.8600E,174,19.996,34.7821
357,2014/3/21,10:04:00,32-51.6300N,137-23.9000E,170,19.994,34.7808
358,2014/3/21,10:05:00,32-51.4100N,137-23.9500E,169,20.005,34.7793
359,2014/3/21,10:06:00,32-51.1800N,137-24.0000E,169,20.01,34.7778
360,2014/3/21,10:07:00,32-50.9500N,137-24.0500E,169,20.017,34.7772
361,2014/3/21,10:08:00,32-50.7200N,137-24.1000E,169,20.024,34.7759
362,2014/3/21,10:09:00,32-50.4900N,137-24.1500E,169,20.039,34.7745
363,2014/3/21,10:10:00,32-50.2500N,137-24.2000E,169,20.048,34.7721
364,2014/3/21,10:11:00,32-50.0300N,137-24.2500E,169,20.047,34.7712
365,2014/3/21,10:12:00,32-49.8000N,137-24.3100E,167,20.054,34.7715
366,2014/3/21,10:13:00,32-49.5600N,137-24.3800E,166,20.049,34.7697
367,2014/3/21,10:14:00,32-49.3400N,137-24.4500E,165,20.048,34.7691
368,2014/3/21,10:15:00,32-49.1100N,137-24.5200E,164,20.045,34.7676
369,2014/3/21,10:16:00,32-48.8800N,137-24.5900E,165,20.04,34.7667
370,2014/3/21,10:17:00,32-48.6500N,137-24.6600E,165,20.037,34.766
371,2014/3/21,10:18:00,32-48.4200N,137-24.7200E,166,20.032,34.7658
372,2014/3/21,10:19:00,32-48.1900N,137-24.7900E,165,20.027,34.7667
373,2014/3/21,10:20:00,32-47.9600N,137-24.8600E,165,20.026,34.7674
374,2014/3/21,10:21:00,32-47.7300N,137-24.9300E,164,20.019,34.7678
375,2014/3/21,10:22:00,32-47.4800N,137-25.0100E,165,20.007,34.7689
376,2014/3/21,10:23:00,32-47.2600N,137-25.0800E,166,20.005,34.7689
377,2014/3/21,10:24:00,32-47.0200N,137-25.1500E,164,19.998,34.7705
378,2014/3/21,10:25:00,32-46.7900N,137-25.2100E,168,19.988,34.7722
379,2014/3/21,10:26:00,32-46.5700N,137-25.2600E,169,19.974,34.7733